Probability
0 0 0 0 0 0 0 0 0 0 0 0 0 0 0 0 0 0 0 0 0 0 0 0 0 0 0 0 0 0 0 0 0 0 0 0 0 0 0 0 0 0 0 0
0 0 0 0 0 0 0 0 0 0 0 0 0 0 0 0 0 0 0 0 0 0 0 0 0 0 0 0 0 0 0 0 0 0 0 0 0 0 0 0 0 0 0 0
0 0 0 0 0 0 0 0 0 0 0 0 0 0 0 0 0 0 0 0 0 0 0 0 0 0 0 0 0 0 0 0 0 0 0 0 0 0 0 0 0 0 0 0
0 0 0 0 0 0 0 0 0 0 0 0 0 0 0 0 0 0 0 0 0 0 0 0 0 0 0 0 0 0 0 0 0 0 0 0 0 0 0 0 0 0 0 0
0 0 0 0 0 0 0 0 0 0 0 0 0 0 0 0 0 0 0 0 0 0 0 0 0 0 0 0 0 0 0 0 0 0 0 0 0 0 0 0 0 0 0 0
0 0 0 0 0 0 0 0 0 0 0 0 0 0 0 0 0 0 0 0 0 0 0 0 0 0 0 0 0 0 0 0 0 0 0 0 0 0 0 0 0 0 0 0
0 0 0 0 0 0 0 0 0 0 0 0 0 0 0 0 0 0 0 0 0 0 0 0 0 0 0 0 0 0 0 0 0 0 0 0 0 0 0 0 0 0 0 0
0 0 0 0 0 0 0 0 0 0 0 0 0 0 0 0 0 0 0 0 0 0 0 0 0 0 0 0 0 0 0 0 0 0 0 0 0 0 0 0 0 0 0 0
0 0 0 0 0 0 0 0 0 0 0 0 0 0 0 0 0 0 0 0 0 0 0 0 0 0 0 0 0 0 0 0 0 0 0 0 0 0 0 0 0 0 0 0
0 0 0 0 0 0 0 0 0 0 0 0 0 0 0 0 0 0 0 0 0 0 0 0 0 0 0 0 0 0 0 0 0 0 0 0 0 0 0 0 0 0 0 0
0 0 0 0 0 0 0 0 0 0 0 0 0 0 0 0 0 0 0 0 0 0 0 0 0 0 0 0 0 0 0 0 0 0 0 0 0 0 0 0 0 0 0 0
0 0 0 0 0 0 0 0 0 0 0 0 0 0 0 0 0 0 0 0 0 0 0 0 0 0 0 0 0 0 0 0 0 0 0 0 0 0 0 0 0 0 0 0
0 0 0 0 0 0 0 0 0 0 0 0 0 0 0 0 0 0 0 0 0 0 0 0 0 0 0 0 0 0 0 0 0 0 0 0 0 0 0 0 0 0 0 0
0 0 0 0 0 0 0 0 0 0 0 0 0 0 0 0 0 0 0 0 0 0 0 0 0 0 0 0 0 0 0 0 0 0 0 0 0 0 0 0 0 0 0 0
0 0 0 0 0 0 0 0 0 0 0 0 0 0 0 0 0 0 0 0 0 0 0 0 0 0 0 0 0 0 0 0 0 0 0 0 0 0 0 0 0 0 0 0
0 0 0 0 0 0 0 0 0 0 0 0 0 0 0 0 0 0 0 0 0 0 0 0 0 0 0 0 0 0 0 0 0 0 0 0 0 0 0 0 0 0 0 0
0 0 0 0 0 0 0 0 0 0 0 0 0 0 0 0 0 0 0 0 0 0 0 0 0 0 0 0 0 0 0 0 0 0 0 0 0 0 0 0 0 0 0 0
0 0 0 0 0 0 0 0 0 0 0 0 0 0 0 0 0 0 0 0 0 0 0 0 0 0 0 0 0 0 0 0 0 0 0 0 0 0 0 0 0 0 0 0
0 0 0 0 0 0 0 0 0 0 0 0 0 0 0 0 0 0 0 0 0 0 0 0 0 0 0 0 0 0 0 0 0 0 0 0 0 0 0 0 0 0 0 0
0 0 0 0 0 0 0 0 0 0 0 0 0 0 0 0 0 0 0 0 0 0 0 0 0 0 0 0 0 0 0 0 0 0 0 0 0 0 0 0 0 0 0 0
0 0 0 0 0 0 0 0 0 0 0 0 0 0 0 0 0 0 0 0 0 0 0 0 0 0 0 0 0 0 0 0 0 0 0 0 0 0 0 0 0 0 0 0
0 0 0 0 0 0 0 0 0 0 0 0 0 0 0 0 0 0 0 0 0 0 0 0 0 0 0 0 0 0 0 0 0 0 0 0 0 0 0 0 0 0 0 0
0 0 0 0 0 0 0 0 0 0 0 0 0 0 0 0 0 0 0 0 0 0 0 0 0 0 0 0 0 0 0 0 0 0 0 0 0 0 0 0 0 0 0 0
0 0 0 0 0 0 0 0 0 0 0 0 0 0 0 0 0 0 0 0 0 0 0 0 0 0 0 0 0 0 0 0 0 0 0 0 0 0 0 0 0 0 0 0
0 0 0 0 0 0 0 0 0 0 0 0 0 0 0 0 0 0 0 0 0 0 0 0 0 0 0 0 0 0 0 0 0 0 0 0 0 0 0 0 0 0 0 0
0 0 0 0 0 0 0 0 0 0 0 0 0 0 0 0 0 0 0 0 0 0 0 0 0 0 0 0 0 0 0 0 0 0 0 0 0 0 0 0 0 0 0 0
Wind_Speed
9 9 13 14 14 9 9 10 10 6 5 6 7 8 7 8 7 7 7 6 7 8 8 8 8 8 8 8 9 11 12 11 9 7 7 6 6 5 4 4 5 6 5 6
9 14 13 10 12 11 8 11 9 5 2 2 5 8 8 7 9 9 8 8 8 8 7 7 7 8 8 8 8 9 10 12 11 8 7 5 5 5 5 5 6 6 6 6
14 8 11 11 10 11 9 8 8 7 4 1 1 6 10 10 9 8 7 6 6 7 8 8 7 7 7 7 8 7 9 10 12 10 6 4 4 3 4 5 5 7 7 7
11 5 10 9 9 9 7 2 5 10 7 5 6 5 7 10 10 9 8 7 6 5 5 6 6 6 6 6 5 6 7 8 9 11 9 8 6 6 6 4 4 5 7 6
8 7 8 10 9 7 3 5 7 6 4 2 4 4 6 5 7 9 9 8 6 5 5 5 4 3 3 2 3 3 4 5 7 9 10 8 7 5 3 3 4 4 4 5
3 2 3 4 4 7 8 7 6 3 2 3 7 6 6 5 7 7 6 7 6 6 5 5 4 3 2 2 1 2 3 3 4 6 8 8 7 6 4 3 3 2 2 2
4 2 1 3 8 6 7 8 4 3 3 6 4 6 7 2 2 6 9 7 7 6 5 5 5 4 3 3 3 3 3 3 3 5 5 6 6 5 4 3 2 2 1 1
9 7 8 6 6 9 9 9 9 8 7 4 2 7 8 2 4 5 6 7 7 6 5 5 5 5 4 4 4 4 5 4 4 5 4 4 5 3 3 3 3 2 2 1
12 7 7 3 1 8 9 7 4 6 3 4 6 6 5 3 4 5 5 6 7 6 6 6 6 6 5 5 5 6 6 6 6 6 6 6 6 5 5 5 4 3 3 2
6 8 5 3 1 2 3 8 5 6 8 5 5 6 6 8 10 9 9 8 8 8 7 7 6 6 5 5 6 7 7 7 7 7 6 6 6 6 6 6 5 4 4 4
2 10 5 3 9 9 5 7 7 6 6 7 5 7 4 7 9 10 9 9 9 8 8 7 6 6 6 6 6 7 7 8 8 7 7 8 7 7 7 6 5 5 5 5
4 8 6 3 1 3 3 7 8 8 6 5 4 7 1 2 5 8 9 8 8 8 7 7 7 7 6 6 7 7 7 7 7 7 8 8 7 7 7 7 6 6 5 5
7 9 8 3 1 2 3 4 7 4 5 5 5 8 0 2 4 6 8 8 8 8 8 7 7 6 6 6 7 7 7 7 7 8 8 8 8 7 7 7 6 6 5 5
7 5 8 13 10 10 6 7 8 7 5 6 9 7 4 5 6 7 8 9 8 8 8 7 6 6 6 7 7 7 7 7 7 8 8 8 7 7 6 6 6 6 5 5
6 6 5 4 4 12 9 12 12 11 11 10 10 10 8 11 11 10 10 10 10 9 8 8 8 7 7 7 7 7 7 6 7 8 8 8 7 6 6 6 5 5 5 5
6 6 6 3 1 5 7 12 15 14 13 12 8 8 4 8 9 10 12 12 12 11 10 9 9 9 8 8 8 7 7 6 7 9 8 7 6 5 5 5 4 4 4 4
8 7 7 4 3 5 6 13 16 13 12 12 16 13 4 5 11 14 14 15 14 13 12 12 10 9 8 8 8 8 8 7 8 8 7 5 5 5 4 4 4 4 4 4
9 8 5 5 6 8 13 7 10 13 14 14 10 4 9 10 11 11 12 15 14 14 13 12 11 10 9 8 9 9 8 7 7 7 6 5 5 4 4 4 4 3 3 3
5 9 6 6 7 8 8 7 13 13 14 13 14 10 6 4 4 4 7 11 12 12 11 10 10 10 10 9 9 9 8 7 7 6 5 4 4 3 3 3 3 3 3 3
2 6 6 6 7 13 13 8 7 6 12 11 12 10 9 10 7 9 8 10 11 12 12 12 12 11 10 9 9 10 8 7 6 5 4 3 3 3 2 2 2 2 3 4
6 5 7 6 6 10 6 5 11 12 13 5 10 10 12 14 10 5 10 10 11 12 13 13 13 11 9 9 9 10 8 7 5 4 4 3 3 2 1 1 2 3 4 4
13 10 9 7 8 12 5 8 11 7 2 2 3 5 8 6 4 7 10 12 14 14 13 13 12 10 7 7 9 10 8 6 5 4 3 2 1 1 1 2 2 3 3 5
10 10 8 10 9 2 7 7 3 3 3 2 2 2 6 6 6 8 9 11 11 12 11 10 12 11 7 5 6 9 7 5 4 4 2 1 1 1 1 1 3 3 3 3
3 3 5 4 5 2 2 2 2 2 2 3 3 4 6 7 9 10 10 10 10 10 10 10 12 11 8 5 7 7 6 5 4 3 2 1 1 1 1 1 2 2 3 4
5 6 5 5 2 0 3 4 4 3 4 4 3 4 6 10 10 10 10 10 10 9 8 9 10 11 9 8 7 6 5 4 4 3 2 1 1 2 2 2 3 4 4 5
4 6 7 5 5 5 4 4 6 6 5 5 5 5 5 8 10 10 10 9 9 10 9 9 9 10 9 8 7 5 4 4 4 3 2 1 1 2 2 3 4 7 8 11
Wind_Direction
184 202 209 206 213 222 191 199 201 166 145 172 207 234 221 184 186 215 227 209 193 197 190 178 172 171 170 175 175 173 175 180 181 181 184 187 191 190 194 197 198 200 195 191
183 214 213 209 211 233 226 205 198 105 115 181 222 241 240 216 199 201 210 210 200 191 178 165 164 165 175 181 185 182 178 180 183 187 187 187 184 191 195 194 201 204 202 197
196 197 201 208 199 212 232 215 191 135 111 290 293 268 233 225 211 204 208 211 199 182 174 168 171 175 177 188 192 193 187 181 181 178 174 170 180 184 190 196 200 205 206 205
212 188 182 191 199 193 216 212 132 126 137 190 187 255 241 201 195 201 206 210 208 184 166 156 163 174 178 191 190 195 192 183 176 172 176 175 183 194 197 192 196 198 203 206
192 168 175 188 192 184 152 102 105 137 163 148 194 231 273 154 179 207 204 197 188 162 146 135 127 132 129 148 176 192 189 185 175 171 175 183 193 199 191 186 190 196 197 200
94 142 180 177 149 141 122 89 79 87 120 227 202 197 258 204 196 190 170 154 141 124 115 113 105 102 106 115 140 166 174 178 166 163 166 179 188 187 187 190 184 186 177 177
131 152 36 108 109 133 157 133 119 156 199 235 184 194 239 214 121 145 148 141 132 133 140 140 140 140 134 141 151 153 150 150 141 142 150 162 170 171 176 174 166 153 137 114
157 184 193 191 159 165 196 169 154 171 194 211 312 224 245 171 92 83 114 128 134 141 131 126 124 117 110 110 120 126 128 124 118 118 120 123 133 134 133 131 123 115 103 83
172 170 150 157 20 152 173 210 159 130 123 164 224 246 254 186 174 172 165 158 162 149 133 124 113 107 106 99 96 105 111 106 102 102 99 95 97 98 96 86 80 76 70 57
156 136 144 116 94 346 195 152 125 139 153 206 228 214 221 207 210 191 181 175 158 141 134 126 113 104 96 90 87 86 92 96 92 88 87 88 85 85 84 80 73 69 62 56
106 121 130 155 192 178 162 158 171 160 175 170 209 245 215 195 186 178 176 162 150 146 141 129 118 109 101 91 88 87 87 89 89 89 87 85 80 79 79 76 69 64 58 53
132 118 132 157 78 349 220 181 174 168 201 183 178 255 316 48 126 147 149 143 139 136 130 126 124 119 110 99 92 89 87 87 89 90 87 84 80 77 74 68 59 55 53 48
137 122 112 98 182 256 253 218 209 177 133 162 179 250 280 99 111 135 141 140 137 136 134 132 131 127 120 112 103 97 91 89 88 88 86 81 75 73 70 64 56 50 45 41
134 144 161 179 188 170 190 200 199 182 173 191 209 216 203 188 173 163 156 152 150 150 149 145 137 126 119 114 108 103 95 92 92 90 87 81 74 71 67 61 53 44 39 37
137 177 202 202 163 160 178 190 192 202 200 192 219 221 211 195 188 177 163 158 159 163 163 155 146 136 126 118 111 105 99 93 95 93 87 80 73 68 64 57 48 42 38 31
170 181 178 205 34 165 183 191 193 210 221 230 238 239 208 172 155 158 167 171 175 177 172 161 152 145 141 134 126 116 104 94 93 91 86 82 79 73 65 56 48 43 34 20
166 152 154 186 113 78 230 204 195 203 214 212 231 235 156 152 170 178 180 183 186 180 172 167 160 151 143 136 130 122 113 104 99 98 94 88 85 76 61 49 44 35 20 8
156 144 136 128 120 207 234 198 191 208 222 215 224 211 181 188 191 188 182 183 184 176 171 165 155 144 133 123 118 112 111 110 107 102 95 86 81 73 56 46 37 19 6 354
145 138 135 149 180 239 257 206 194 201 234 215 221 223 192 149 137 222 194 180 178 171 161 152 143 136 130 126 124 121 116 112 105 101 95 86 80 71 51 35 17 359 344 330
136 139 139 160 180 218 235 195 162 164 249 222 207 209 175 145 191 226 183 166 155 146 141 136 131 129 130 130 130 124 122 114 108 104 98 87 76 66 41 10 347 333 321 308
160 164 177 179 206 246 235 165 137 178 236 203 194 195 176 189 209 178 148 147 140 135 132 131 130 132 133 133 130 124 120 115 112 104 96 82 64 41 358 332 317 309 306 305
173 175 188 179 208 238 169 148 174 202 172 174 193 190 180 181 130 122 131 133 134 132 132 132 129 123 119 128 131 124 120 115 107 102 95 82 54 357 336 316 304 301 301 304
186 185 180 194 215 201 167 179 174 133 151 169 178 167 143 136 136 131 130 130 130 132 130 126 126 120 109 107 124 125 121 116 112 106 93 75 25 304 285 294 306 308 303 299
200 141 154 202 235 201 186 111 119 121 144 150 151 148 144 144 143 137 135 134 132 129 128 128 129 129 123 106 94 106 114 113 111 102 85 52 13 340 330 304 288 289 294 296
172 160 169 209 226 69 247 218 182 143 125 128 128 140 148 142 146 145 143 142 140 134 132 137 141 138 134 126 111 103 100 105 107 101 86 40 3 340 324 304 278 284 258 259
182 171 176 207 195 182 209 202 172 164 169 161 148 140 144 150 148 143 144 143 142 142 139 136 135 135 134 130 122 110 101 106 112 106 83 42 1 340 324 315 307 299 295 294